Florennes, Belgium

3:08 PM CEST on August 23, 2017 (GMT +0200)
Florennes Air Base

Weather History for EBFS - January, 2013

Change the Weather History Date:

Tuesday, January 8, 2013

  Actual Average Record
Temperature  
Mean Temperature 39 °F -  
Max Temperature 41 °F 38 °F 50 °F (2007)
Min Temperature 37 °F 32 °F 12 °F (2003)
Degree Days  
Heating Degree Days 26    
Moisture  
Dew Point 37 °F    
Average Humidity 94    
Maximum Humidity 100    
Minimum Humidity 83    
Precipitation  
Precipitation 0.00 in - - ()
Sea Level Pressure  
Sea Level Pressure 30.31 in    
Wind  
Wind Speed 7 mph ()    
Max Wind Speed 9 mph    
Max Gust Speed -    
Visibility 3.6 miles    
Events Fog , Rain    
Averages and records for this station are not official NWS values.
T = Trace of Precipitation, MM = Missing Value Source: Averaged Metar Reports

Daily Weather History Graph

Daily Weather History Graph

Search for Another Location

Airport or City:

Trip Planner

Search our weather history database for the weather conditions in past years. The results will help you decide how hot, cold, wet, or windy it might be!

Date:

Astronomy

Jan. 08, 2013 Rise Set
Actual Time 8:39 AM CET 4:57 PM CET
Civil Twilight 8:01 AM CET 5:35 PM CET
Nautical Twilight 7:20 AM CET 6:16 PM CET
Astronomical Twilight 6:40 AM CET 6:55 PM CET
Moon 4:51 AM CET (1/8) 1:47 PM CET (1/8)
Length of Visible Light 9h 34m
Length of Day
8h 18m
Waning Crescent, 16% of the Moon is Illuminated
Jan 8
Waning Crescent
Jan 11
New
Jan 19
First Quarter
Jan 27
Full
Feb 3
Last Quarter

Hourly Weather History & Observations

Time (CET) Temp. Windchill Dew Point Humidity Pressure Visibility Wind Dir Wind Speed Gust Speed Precip Events Conditions
12:25 AM 37.4 °F 31.4 °F 37.4 °F 100% 30.30 in 0.9 mi SW 8.1 mph - N/A   Mostly Cloudy
12:55 AM 37.4 °F 32.1 °F 37.4 °F 100% 30.30 in 0.9 mi SW 6.9 mph - N/A   Mostly Cloudy
1:00 AM 38 °F - 37 °F 97% 30.35 in 1 mi SW 6.7 mph - -   Mist
1:25 AM 37.4 °F 32.1 °F 37.4 °F 100% 30.30 in 0.9 mi WSW 6.9 mph - N/A   Overcast
1:55 AM 37.4 °F 32.1 °F 37.4 °F 100% 30.30 in 0.9 mi SW 6.9 mph - N/A   Mostly Cloudy
2:25 AM 37.4 °F 32.1 °F 37.4 °F 100% 30.33 in 0.6 mi WSW 6.9 mph - N/A Fog Fog
2:55 AM 37.4 °F 32.1 °F 37.4 °F 100% 30.30 in 0.5 mi SW 6.9 mph - N/A Fog Fog
3:25 AM 37.4 °F 31.4 °F 37.4 °F 100% 30.30 in 0.2 mi WSW 8.1 mph - N/A Fog Fog
3:55 AM 37.4 °F 31.4 °F 37.4 °F 100% 30.30 in 0.2 mi SW 8.1 mph - N/A Fog Fog
4:00 AM 38 °F - 38 °F 100% 30.35 in 0 mi SW 8.9 mph - - Fog Partial Fog
4:25 AM 37.4 °F 32.1 °F 37.4 °F 100% 30.30 in 0.2 mi WSW 6.9 mph - N/A Fog Fog
4:55 AM 37.4 °F 32.1 °F 37.4 °F 100% 30.30 in 0.5 mi WSW 6.9 mph - N/A Fog Fog
5:25 AM 39.2 °F 34.2 °F 37.4 °F 93% 30.30 in 0.6 mi West 6.9 mph - N/A Fog Fog
5:55 AM 39.2 °F 33.6 °F 37.4 °F 93% 30.30 in 0.9 mi West 8.1 mph - N/A   Mostly Cloudy
6:25 AM 39.2 °F 34.2 °F 37.4 °F 93% 30.30 in 0.9 mi West 6.9 mph - N/A   Light Drizzle
6:38 AM 39.2 °F 33.6 °F 39.2 °F 100% 30.30 in 0.9 mi West 8.1 mph - N/A   Light Drizzle
6:55 AM 39.2 °F 33.6 °F 39.2 °F 100% 30.30 in 0.9 mi West 8.1 mph - N/A   Light Drizzle
7:00 AM 39 °F - 38 °F 96% 30.35 in 1 mi West 8.9 mph - - Rain Light Drizzle
7:25 AM 39.2 °F 34.2 °F 37.4 °F 93% 30.30 in 1.4 mi West 6.9 mph - N/A   Light Drizzle
7:55 AM 39.2 °F 33.6 °F 37.4 °F 93% 30.30 in 1.9 mi West 8.1 mph - N/A   Light Drizzle
8:17 AM 39.2 °F 34.2 °F 37.4 °F 93% 30.30 in 2.5 mi West 6.9 mph - N/A   Mostly Cloudy
8:25 AM 39.2 °F 34.2 °F 37.4 °F 93% 30.30 in - WSW 6.9 mph - N/A   Mostly Cloudy
8:55 AM 39.2 °F 35.0 °F 37.4 °F 93% 30.30 in 2.2 mi WSW 5.8 mph - N/A   Mostly Cloudy
9:25 AM 39.2 °F 34.2 °F 37.4 °F 93% 30.33 in 2.5 mi WSW 6.9 mph - N/A   Mostly Cloudy
9:55 AM 39.2 °F 34.2 °F 37.4 °F 93% 30.33 in 2.8 mi WSW 6.9 mph - N/A   Mostly Cloudy
10:00 AM 39 °F - 38 °F 93% 30.37 in 3 mi WSW 6.7 mph - -   Mist
10:25 AM 39.2 °F 34.2 °F 37.4 °F 93% 30.33 in 3.1 mi SW 6.9 mph - N/A   Mostly Cloudy
10:55 AM 39.2 °F 34.2 °F 37.4 °F 93% 30.33 in 4.3 mi WSW 6.9 mph - N/A   Mostly Cloudy
11:25 AM 39.2 °F 33.6 °F 37.4 °F 93% 30.33 in 5.0 mi SW 8.1 mph - N/A   Mostly Cloudy
11:55 AM 39.2 °F 35.9 °F 37.4 °F 93% 30.33 in 5.6 mi WSW 4.6 mph - N/A   Mostly Cloudy
12:25 PM 41.0 °F 35.8 °F 39.2 °F 93% 30.33 in 6.2 mi WSW 8.1 mph - N/A   Mostly Cloudy
12:55 PM 41.0 °F 36.4 °F 39.2 °F 93% 30.33 in 6.2 mi WSW 6.9 mph - N/A   Mostly Cloudy
1:00 PM 40 °F - 39 °F 93% 30.36 in 6 mi WSW 6.7 mph - -   Partly Cloudy
1:25 PM 41.0 °F 36.4 °F 39.2 °F 93% 30.30 in 6.2 mi WSW 6.9 mph - N/A   Mostly Cloudy
1:49 PM 41.0 °F 35.8 °F 39.2 °F 93% 30.30 in 6.2 mi WSW 8.1 mph - N/A   Mostly Cloudy
1:55 PM 41.0 °F 35.8 °F 39.2 °F 93% 30.30 in 6.2 mi WSW 8.1 mph - N/A   Mostly Cloudy
2:06 PM 41.0 °F 36.4 °F 39.2 °F 93% 30.30 in 6.2 mi WSW 6.9 mph - N/A   Mostly Cloudy
2:25 PM 41.0 °F 35.2 °F 39.2 °F 93% 30.30 in 6.2 mi WSW 9.2 mph - N/A   Mostly Cloudy
2:55 PM 41.0 °F 35.2 °F 39.2 °F 93% 30.30 in 6.2 mi WSW 9.2 mph - N/A   Mostly Cloudy
3:25 PM 41.0 °F 36.4 °F 37.4 °F 87% 30.30 in 6.2 mi WSW 6.9 mph - N/A   Mostly Cloudy
3:55 PM 41.0 °F 36.4 °F 39.2 °F 93% 30.30 in 6.2 mi WSW 6.9 mph - N/A   Mostly Cloudy
4:00 PM 41 °F - 38 °F 85% 30.35 in 7 mi SW 6.7 mph - -   Overcast
4:25 PM 41.0 °F 35.8 °F 37.4 °F 87% 30.30 in 6.2 mi West 8.1 mph - N/A   Mostly Cloudy
4:55 PM 41.0 °F 36.4 °F 39.2 °F 93% 30.30 in 6.2 mi WSW 6.9 mph - N/A   Mostly Cloudy
5:25 PM 39.2 °F 34.2 °F 35.6 °F 87% 30.30 in 6.2 mi WSW 6.9 mph - N/A   Mostly Cloudy
5:55 PM 39.2 °F 34.2 °F 35.6 °F 87% 30.30 in 6.2 mi SW 6.9 mph - N/A   Mostly Cloudy
6:25 PM 39.2 °F 34.2 °F 35.6 °F 87% 30.30 in 6.2 mi SW 6.9 mph - N/A   Mostly Cloudy
6:55 PM 39.2 °F 34.2 °F 35.6 °F 87% 30.30 in 6.2 mi SW 6.9 mph - N/A   Mostly Cloudy
7:00 PM 38 °F - 35 °F 83% 30.35 in 11 mi SW 8.9 mph - -   Partly Cloudy
7:25 PM 39.2 °F 35.0 °F 35.6 °F 87% 30.30 in 6.2 mi WSW 5.8 mph - N/A   Mostly Cloudy
7:55 PM 37.4 °F 31.4 °F 35.6 °F 93% 30.30 in 6.2 mi WSW 8.1 mph - N/A   Mostly Cloudy
8:25 PM 37.4 °F 31.4 °F 35.6 °F 93% 30.33 in 5.0 mi SSW 8.1 mph - N/A   Light Drizzle
8:55 PM 37.4 °F 32.1 °F 35.6 °F 93% 30.30 in 3.7 mi SSW 6.9 mph - N/A   Light Drizzle
9:10 PM 37.4 °F 32.8 °F 35.6 °F 93% 30.30 in 3.1 mi SSW 5.8 mph - N/A   Light Drizzle
9:25 PM 37.4 °F 32.8 °F 35.6 °F 93% 30.30 in 3.1 mi SW 5.8 mph - N/A   Light Drizzle
9:55 PM 37.4 °F 32.1 °F 35.6 °F 93% 30.30 in 2.8 mi SSW 6.9 mph - N/A   Light Drizzle
10:00 PM 37 °F - 36 °F 96% 30.35 in 3 mi SSW 6.7 mph - - Rain Light Drizzle
10:25 PM 37.4 °F 31.4 °F 37.4 °F 100% 30.27 in - South 8.1 mph - N/A   Light Drizzle
10:55 PM 37.4 °F 30.8 °F 37.4 °F 100% 30.27 in - SSW 9.2 mph - N/A   Light Drizzle
11:25 PM 37.4 °F 31.4 °F 35.6 °F 93% 30.27 in 3.7 mi SSW 8.1 mph - N/A   Mostly Cloudy
11:55 PM 37.4 °F 32.1 °F 37.4 °F 100% 30.27 in 5.0 mi SW 6.9 mph - N/A   Mostly Cloudy